Time,TemperatureF,DewpointF,PressureIn,WindDirection,WindDirectionDegrees,WindSpeedMPH,WindSpeedGustMPH,Humidity,HourlyPrecipIn,Conditions,Clouds,dailyrainin,SoftwareType,DateUTC
2013-01-25 00:02:00,21.0,9.0,30.39,SSE,148,7.0,11.0,59,0.00,,,0.00,,2013-01-25 06:02:00,
2013-01-25 00:11:00,21.0,9.0,30.39,SSE,148,7.0,11.0,59,0.00,,,0.00,,2013-01-25 06:11:00,
2013-01-25 00:21:00,21.0,9.0,30.37,ESE,119,7.0,12.0,58,0.00,,,0.00,,2013-01-25 06:21:00,
2013-01-25 00:32:00,21.0,9.0,30.35,SE,143,7.0,11.0,58,0.00,,,0.00,,2013-01-25 06:32:00,
2013-01-25 00:42:00,21.0,9.0,30.35,SE,143,7.0,11.0,58,0.00,,,0.00,,2013-01-25 06:42:00,
2013-01-25 00:52:00,21.0,9.0,30.34,ESE,121,8.0,13.0,58,0.00,,,0.00,,2013-01-25 06:52:00,
2013-01-25 01:02:00,21.0,8.0,30.35,ESE,116,7.0,11.0,57,0.00,,,0.00,,2013-01-25 07:02:00,
2013-01-25 01:11:00,21.0,8.0,30.35,ESE,116,7.0,11.0,57,0.00,,,0.00,,2013-01-25 07:11:00,
2013-01-25 01:21:00,22.0,10.0,30.33,ESE,123,7.0,10.0,58,0.00,,,0.00,,2013-01-25 07:21:00,
2013-01-25 01:32:00,22.0,10.0,30.31,ESE,115,8.0,14.0,58,0.00,,,0.00,,2013-01-25 07:32:00,
2013-01-25 01:42:00,22.0,10.0,30.31,ESE,115,8.0,14.0,58,0.00,,,0.00,,2013-01-25 07:42:00,
2013-01-25 01:51:00,21.0,9.0,30.30,ESE,117,9.0,14.0,58,0.00,,,0.00,,2013-01-25 07:51:00,
2013-01-25 02:01:00,22.0,10.0,30.29,SE,126,8.0,12.0,59,0.00,,,0.00,,2013-01-25 08:01:00,
2013-01-25 02:11:00,22.0,10.0,30.29,SE,130,7.0,13.0,59,0.00,,,0.00,,2013-01-25 08:11:00,
2013-01-25 02:21:00,22.0,10.0,30.29,SE,130,7.0,13.0,59,0.00,,,0.00,,2013-01-25 08:21:00,
2013-01-25 02:32:00,22.0,10.0,30.28,SE,130,8.0,13.0,59,0.00,,,0.00,,2013-01-25 08:32:00,
2013-01-25 02:41:00,22.0,10.0,30.28,SE,130,8.0,13.0,59,0.00,,,0.00,,2013-01-25 08:41:00,
2013-01-25 02:52:00,22.0,10.0,30.28,SE,128,7.0,13.0,59,0.00,,,0.00,,2013-01-25 08:52:00,
2013-01-25 03:02:00,22.0,10.0,30.26,SE,128,7.0,11.0,59,0.00,,,0.00,,2013-01-25 09:02:00,
2013-01-25 03:11:00,22.0,10.0,30.26,SE,128,7.0,11.0,59,0.00,,,0.00,,2013-01-25 09:11:00,
2013-01-25 03:21:00,22.0,10.0,30.25,SE,132,8.0,11.0,58,0.00,,,0.00,,2013-01-25 09:21:00,
2013-01-25 03:31:00,22.0,10.0,30.24,ESE,119,8.0,11.0,58,0.00,,,0.00,,2013-01-25 09:31:00,
2013-01-25 03:41:00,22.0,10.0,30.24,ESE,119,8.0,11.0,58,0.00,,,0.00,,2013-01-25 09:41:00,
2013-01-25 03:51:00,22.0,10.0,30.24,SE,140,7.0,11.0,59,0.00,,,0.00,,2013-01-25 09:51:00,
2013-01-25 04:02:00,22.0,10.0,30.23,SE,126,5.0,9.0,59,0.00,,,0.00,,2013-01-25 10:02:00,
2013-01-25 04:12:00,22.0,10.0,30.23,SE,126,5.0,9.0,59,0.00,,,0.00,,2013-01-25 10:12:00,
2013-01-25 04:21:00,22.0,10.0,30.21,SE,131,6.0,10.0,59,0.00,,,0.00,,2013-01-25 10:21:00,
2013-01-25 04:32:00,22.0,10.0,30.22,SE,134,5.0,8.0,59,0.00,,,0.00,,2013-01-25 10:32:00,
2013-01-25 04:42:00,22.0,10.0,30.22,SE,134,5.0,8.0,59,0.00,,,0.00,,2013-01-25 10:42:00,
2013-01-25 04:51:00,22.0,10.0,30.20,SE,136,6.0,8.0,59,0.00,,,0.00,,2013-01-25 10:51:00,
2013-01-25 05:02:00,22.0,11.0,30.20,SSE,148,6.0,9.0,61,0.00,,,0.00,,2013-01-25 11:02:00,
2013-01-25 05:11:00,22.0,11.0,30.20,SSE,148,6.0,9.0,61,0.00,,,0.00,,2013-01-25 11:11:00,
2013-01-25 05:22:00,21.0,13.0,30.19,SSE,153,6.0,13.0,71,0.00,,,0.00,,2013-01-25 11:22:00,
2013-01-25 05:32:00,21.0,14.0,30.17,SSE,158,7.0,11.0,75,0.00,,,0.00,,2013-01-25 11:32:00,
2013-01-25 05:42:00,21.0,14.0,30.17,SSE,158,7.0,11.0,75,0.00,,,0.00,,2013-01-25 11:42:00,
2013-01-25 05:52:00,20.0,15.0,30.17,South,169,7.0,11.0,82,0.00,,,0.00,,2013-01-25 11:52:00,
2013-01-25 06:02:00,20.0,16.0,30.16,South,182,6.0,10.0,86,0.00,,,0.00,,2013-01-25 12:02:00,
2013-01-25 06:11:00,20.0,16.0,30.16,South,182,6.0,10.0,86,0.00,,,0.00,,2013-01-25 12:11:00,
2013-01-25 06:22:00,20.0,17.0,30.17,South,171,5.0,8.0,87,0.00,,,0.00,,2013-01-25 12:22:00,
2013-01-25 06:32:00,19.0,16.0,30.19,South,175,1.0,7.0,88,0.00,,,0.00,,2013-01-25 12:32:00,
2013-01-25 06:42:00,19.0,16.0,30.19,South,175,1.0,7.0,88,0.00,,,0.00,,2013-01-25 12:42:00,
2013-01-25 06:53:00,19.0,16.0,30.18,South,184,1.0,4.0,89,0.00,,,0.00,,2013-01-25 12:53:00,
2013-01-25 07:02:00,19.0,17.0,30.17,South,171,3.0,5.0,90,0.00,,,0.00,,2013-01-25 13:02:00,
2013-01-25 07:11:00,19.0,17.0,30.17,South,171,3.0,5.0,90,0.00,,,0.00,,2013-01-25 13:11:00,
2013-01-25 07:22:00,19.0,17.0,30.17,South,173,2.0,5.0,90,0.00,,,0.00,,2013-01-25 13:22:00,
2013-01-25 07:32:00,19.0,17.0,30.15,South,175,4.0,6.0,91,0.00,,,0.00,,2013-01-25 13:32:00,
2013-01-25 07:42:00,19.0,17.0,30.15,South,175,4.0,6.0,91,0.00,,,0.00,,2013-01-25 13:42:00,
2013-01-25 07:52:00,20.0,18.0,30.15,South,172,4.0,7.0,90,0.00,,,0.00,,2013-01-25 13:52:00,
2013-01-25 08:03:00,20.0,18.0,30.14,South,181,5.0,7.0,90,0.00,,,0.00,,2013-01-25 14:03:00,
2013-01-25 08:12:00,20.0,18.0,30.14,South,181,5.0,7.0,90,0.00,,,0.00,,2013-01-25 14:12:00,
2013-01-25 08:22:00,20.0,18.0,30.15,SSW,202,3.0,6.0,90,0.00,,,0.00,,2013-01-25 14:22:00,
2013-01-25 08:32:00,20.0,17.0,30.14,SSW,200,4.0,7.0,89,0.00,,,0.00,,2013-01-25 14:32:00,
2013-01-25 08:42:00,20.0,17.0,30.14,SSW,200,4.0,7.0,89,0.00,,,0.00,,2013-01-25 14:42:00,
2013-01-25 08:52:00,21.0,18.0,30.13,South,180,3.0,7.0,89,0.00,,,0.00,,2013-01-25 14:52:00,
2013-01-25 09:02:00,21.0,18.0,30.13,SW,215,4.0,7.0,88,0.00,,,0.00,,2013-01-25 15:02:00,
2013-01-25 09:12:00,21.0,18.0,30.13,SW,215,4.0,7.0,88,0.00,,,0.00,,2013-01-25 15:12:00,
2013-01-25 09:22:00,21.0,18.0,30.12,SSW,203,6.0,10.0,88,0.00,,,0.00,,2013-01-25 15:22:00,
2013-01-25 09:32:00,22.0,19.0,30.13,SSW,202,5.0,10.0,88,0.00,,,0.00,,2013-01-25 15:32:00,
2013-01-25 09:42:00,22.0,19.0,30.13,SSW,202,5.0,10.0,88,0.00,,,0.00,,2013-01-25 15:42:00,
2013-01-25 09:52:00,22.0,19.0,30.13,SSW,212,4.0,11.0,87,0.00,,,0.00,,2013-01-25 15:52:00,
2013-01-25 10:03:00,23.0,20.0,30.12,WSW,239,4.0,9.0,87,0.00,,,0.00,,2013-01-25 16:03:00,
2013-01-25 10:12:00,23.0,20.0,30.12,WSW,239,4.0,9.0,87,0.00,,,0.00,,2013-01-25 16:12:00,
2013-01-25 10:22:00,23.0,19.0,30.13,SW,229,4.0,10.0,86,0.00,,,0.00,,2013-01-25 16:22:00,
2013-01-25 10:32:00,24.0,20.0,30.12,WSW,241,5.0,8.0,84,0.00,,,0.00,,2013-01-25 16:32:00,
2013-01-25 10:42:00,24.0,20.0,30.12,WSW,241,5.0,8.0,84,0.00,,,0.00,,2013-01-25 16:42:00,
2013-01-25 10:52:00,24.0,19.0,30.11,SW,232,6.0,10.0,82,0.00,,,0.00,,2013-01-25 16:52:00,
2013-01-25 11:02:00,25.0,20.0,30.11,WSW,242,5.0,10.0,82,0.00,,,0.00,,2013-01-25 17:02:00,
2013-01-25 11:12:00,25.0,20.0,30.11,WSW,242,5.0,10.0,82,0.00,,,0.00,,2013-01-25 17:12:00,
2013-01-25 11:22:00,25.0,20.0,30.10,WSW,250,5.0,10.0,80,0.00,,,0.00,,2013-01-25 17:22:00,
2013-01-25 11:32:00,26.0,20.0,30.09,WSW,248,6.0,10.0,78,0.00,,,0.00,,2013-01-25 17:32:00,
2013-01-25 11:42:00,26.0,20.0,30.09,WSW,248,6.0,10.0,78,0.00,,,0.00,,2013-01-25 17:42:00,
2013-01-25 11:52:00,26.0,19.0,30.08,SW,236,7.0,15.0,76,0.00,,,0.00,,2013-01-25 17:52:00,
2013-01-25 12:03:00,27.0,20.0,30.07,WSW,237,6.0,12.0,75,0.00,,,0.00,,2013-01-25 18:03:00,
2013-01-25 12:12:00,27.0,20.0,30.07,WSW,237,6.0,12.0,75,0.00,,,0.00,,2013-01-25 18:12:00,
2013-01-25 12:23:00,27.0,20.0,30.06,West,259,6.0,12.0,74,0.00,,,0.00,,2013-01-25 18:23:00,
2013-01-25 12:32:00,28.0,21.0,30.05,West,275,9.0,12.0,75,0.00,,,0.00,,2013-01-25 18:32:00,
2013-01-25 12:42:00,28.0,21.0,30.05,West,275,9.0,12.0,75,0.00,,,0.00,,2013-01-25 18:42:00,
2013-01-25 12:52:00,28.0,21.0,30.04,West,261,7.0,12.0,74,0.00,,,0.00,,2013-01-25 18:52:00,
2013-01-25 13:02:00,28.0,21.0,30.03,WSW,246,9.0,16.0,75,0.00,,,0.00,,2013-01-25 19:02:00,
2013-01-25 13:12:00,28.0,21.0,30.03,WSW,246,9.0,16.0,75,0.00,,,0.00,,2013-01-25 19:12:00,
2013-01-25 13:22:00,29.0,21.0,30.03,West,262,8.0,14.0,73,0.00,,,0.00,,2013-01-25 19:22:00,
2013-01-25 13:32:00,30.0,22.0,30.02,WSW,243,7.0,12.0,72,0.00,,,0.00,,2013-01-25 19:32:00,
2013-01-25 13:42:00,30.0,22.0,30.02,WSW,243,7.0,12.0,72,0.00,,,0.00,,2013-01-25 19:42:00,
2013-01-25 13:53:00,31.0,23.0,30.02,WSW,240,8.0,16.0,72,0.00,,,0.00,,2013-01-25 19:53:00,
2013-01-25 14:02:00,31.0,23.0,30.01,SW,235,8.0,13.0,73,0.00,,,0.00,,2013-01-25 20:02:00,
2013-01-25 14:12:00,31.0,23.0,30.01,SW,235,8.0,13.0,73,0.00,,,0.00,,2013-01-25 20:12:00,
2013-01-25 14:22:00,32.0,24.0,30.01,West,279,10.0,15.0,71,0.00,,,0.00,,2013-01-25 20:22:00,
2013-01-25 14:32:00,32.0,23.0,30.01,WSW,248,10.0,15.0,69,0.00,,,0.00,,2013-01-25 20:32:00,
2013-01-25 14:42:00,32.0,23.0,30.01,WSW,248,10.0,15.0,69,0.00,,,0.00,,2013-01-25 20:42:00,
2013-01-25 14:52:00,32.0,23.0,30.01,WSW,248,10.0,15.0,69,0.00,,,0.00,,2013-01-25 20:52:00,
2013-01-25 15:02:00,34.0,24.0,30.00,WSW,238,7.0,16.0,67,0.00,,,0.00,,2013-01-25 21:02:00,
2013-01-25 15:12:00,34.0,24.0,30.00,WSW,238,7.0,16.0,67,0.00,,,0.00,,2013-01-25 21:12:00,
2013-01-25 15:23:00,34.0,23.0,30.01,West,271,11.0,17.0,65,0.00,,,0.00,,2013-01-25 21:23:00,
2013-01-25 15:33:00,34.0,23.0,29.99,WNW,284,9.0,18.0,64,0.00,,,0.00,,2013-01-25 21:33:00,
2013-01-25 15:42:00,34.0,23.0,29.99,WNW,284,9.0,18.0,64,0.00,,,0.00,,2013-01-25 21:42:00,
2013-01-25 15:52:00,34.0,23.0,30.00,WNW,286,10.0,19.0,64,0.00,,,0.00,,2013-01-25 21:52:00,
2013-01-25 16:02:00,35.0,24.0,30.00,WSW,257,9.0,15.0,64,0.00,,,0.00,,2013-01-25 22:02:00,
2013-01-25 16:11:00,35.0,24.0,30.00,WSW,257,9.0,15.0,64,0.00,,,0.00,,2013-01-25 22:11:00,
2013-01-25 16:22:00,35.0,24.0,30.00,WSW,257,9.0,15.0,64,0.00,,,0.00,,2013-01-25 22:22:00,
2013-01-25 16:32:00,34.0,23.0,30.01,West,277,7.0,12.0,64,0.00,,,0.00,,2013-01-25 22:32:00,
2013-01-25 16:42:00,34.0,23.0,30.01,West,277,7.0,12.0,64,0.00,,,0.00,,2013-01-25 22:42:00,
2013-01-25 16:53:00,34.0,23.0,30.01,West,265,7.0,15.0,65,0.00,,,0.00,,2013-01-25 22:53:00,
2013-01-25 17:02:00,33.0,24.0,30.01,West,270,7.0,10.0,68,0.00,,,0.00,,2013-01-25 23:02:00,
2013-01-25 17:12:00,33.0,24.0,30.01,West,270,7.0,10.0,68,0.00,,,0.00,,2013-01-25 23:12:00,
2013-01-25 17:22:00,32.0,23.0,30.02,West,277,5.0,9.0,70,0.00,,,0.00,,2013-01-25 23:22:00,
2013-01-25 17:32:00,30.0,23.0,30.03,West,271,4.0,8.0,74,0.00,,,0.00,,2013-01-25 23:32:00,
2013-01-25 17:42:00,30.0,23.0,30.03,West,271,4.0,8.0,74,0.00,,,0.00,,2013-01-25 23:42:00,
2013-01-25 17:53:00,29.0,22.0,30.03,WNW,290,4.0,9.0,75,0.00,,,0.00,,2013-01-25 23:53:00,
2013-01-25 18:02:00,29.0,21.0,30.04,WNW,291,7.0,12.0,73,0.00,,,0.00,,2013-01-26 00:02:00,
2013-01-25 18:11:00,29.0,21.0,30.04,WNW,291,7.0,12.0,73,0.00,,,0.00,,2013-01-26 00:11:00,
2013-01-25 18:22:00,30.0,22.0,30.05,WNW,284,8.0,14.0,72,0.00,,,0.00,,2013-01-26 00:22:00,
2013-01-25 18:32:00,29.0,22.0,30.07,WNW,299,9.0,17.0,74,0.00,,,0.00,,2013-01-26 00:32:00,
2013-01-25 18:42:00,29.0,22.0,30.07,WNW,299,9.0,17.0,74,0.00,,,0.00,,2013-01-26 00:42:00,
2013-01-25 18:53:00,28.0,22.0,30.08,West,277,9.0,15.0,77,0.00,,,0.00,,2013-01-26 00:53:00,
2013-01-25 19:01:00,27.0,21.0,30.08,West,275,9.0,14.0,79,0.00,,,0.00,,2013-01-26 01:01:00,
2013-01-25 19:11:00,27.0,21.0,30.08,West,275,9.0,14.0,79,0.00,,,0.00,,2013-01-26 01:11:00,
2013-01-25 19:22:00,27.0,21.0,30.09,WNW,298,6.0,10.0,79,0.00,,,0.00,,2013-01-26 01:22:00,
2013-01-25 19:32:00,27.0,21.0,30.09,WNW,286,5.0,10.0,79,0.00,,,0.00,,2013-01-26 01:32:00,
2013-01-25 19:42:00,27.0,21.0,30.09,WNW,286,5.0,10.0,79,0.00,,,0.00,,2013-01-26 01:42:00,
2013-01-25 19:52:00,26.0,21.0,30.09,WNW,286,5.0,7.0,80,0.00,,,0.00,,2013-01-26 01:52:00,
2013-01-25 20:01:00,26.0,21.0,30.09,WNW,290,3.0,6.0,80,0.00,,,0.00,,2013-01-26 02:01:00,
2013-01-25 20:11:00,26.0,21.0,30.09,WNW,290,3.0,6.0,80,0.00,,,0.00,,2013-01-26 02:11:00,
2013-01-25 20:22:00,25.0,20.0,30.09,WNW,289,3.0,5.0,81,0.00,,,0.00,,2013-01-26 02:22:00,
2013-01-25 20:32:00,23.0,19.0,30.09,West,281,3.0,5.0,83,0.00,,,0.00,,2013-01-26 02:32:00,
2013-01-25 20:42:00,23.0,19.0,30.09,West,281,3.0,5.0,83,0.00,,,0.00,,2013-01-26 02:42:00,
2013-01-25 20:52:00,22.0,18.0,30.09,West,280,4.0,6.0,85,0.00,,,0.00,,2013-01-26 02:52:00,
2013-01-25 21:02:00,24.0,20.0,30.10,WNW,294,4.0,8.0,83,0.00,,,0.00,,2013-01-26 03:02:00,
2013-01-25 21:11:00,24.0,20.0,30.10,WNW,294,4.0,8.0,83,0.00,,,0.00,,2013-01-26 03:11:00,
2013-01-25 21:21:00,24.0,19.0,30.11,WNW,284,6.0,9.0,81,0.00,,,0.00,,2013-01-26 03:21:00,
2013-01-25 21:31:00,24.0,18.0,30.12,WNW,290,7.0,10.0,77,0.00,,,0.00,,2013-01-26 03:31:00,
2013-01-25 21:42:00,24.0,18.0,30.12,WNW,290,7.0,10.0,77,0.00,,,0.00,,2013-01-26 03:42:00,
2013-01-25 21:52:00,24.0,17.0,30.12,West,280,7.0,12.0,75,0.00,,,0.00,,2013-01-26 03:52:00,
2013-01-25 22:02:00,24.0,18.0,30.13,WNW,298,7.0,12.0,77,0.00,,,0.00,,2013-01-26 04:02:00,
2013-01-25 22:12:00,24.0,18.0,30.13,WNW,298,7.0,12.0,77,0.00,,,0.00,,2013-01-26 04:12:00,
2013-01-25 22:21:00,22.0,16.0,30.14,WNW,289,5.0,9.0,77,0.00,,,0.00,,2013-01-26 04:21:00,
2013-01-25 22:32:00,22.0,16.0,30.15,WNW,292,6.0,9.0,76,0.00,,,0.00,,2013-01-26 04:32:00,
2013-01-25 22:42:00,22.0,16.0,30.15,WNW,292,6.0,9.0,76,0.00,,,0.00,,2013-01-26 04:42:00,
2013-01-25 22:52:00,21.0,15.0,30.16,WNW,292,4.0,8.0,76,0.00,,,0.00,,2013-01-26 04:52:00,
2013-01-25 23:03:00,20.0,14.0,30.17,WNW,286,5.0,8.0,76,0.00,,,0.00,,2013-01-26 05:03:00,
2013-01-25 23:12:00,20.0,14.0,30.17,WNW,286,5.0,8.0,76,0.00,,,0.00,,2013-01-26 05:12:00,
2013-01-25 23:23:00,20.0,14.0,30.18,WNW,296,5.0,8.0,77,0.00,,,0.00,,2013-01-26 05:23:00,
2013-01-25 23:33:00,20.0,14.0,30.19,WNW,289,5.0,8.0,76,0.00,,,0.00,,2013-01-26 05:33:00,
2013-01-25 23:41:00,20.0,14.0,30.19,WNW,289,5.0,8.0,76,0.00,,,0.00,,2013-01-26 05:41:00,
2013-01-25 23:52:00,19.0,13.0,30.19,West,277,4.0,8.0,78,0.00,,,0.00,,2013-01-26 05:52:00,